Weather History for Dubai International Airport, UAE

Change the Weather History Date:

Monday, June 10, 2013

  Actual Average Record
Temperature  
Mean Temperature 88 °F -  
Max Temperature 97 °F 102 °F - ()
Min Temperature 80 °F 82 °F - ()
Cooling Degree Days 24    
Growing Degree Days 38 (Base 50)    
Moisture  
Dew Point 73 °F    
Average Humidity 59    
Maximum Humidity 84    
Minimum Humidity 34    
Precipitation  
Precipitation 0.00 in 0.00 in - ()
Sea Level Pressure  
Sea Level Pressure 29.45 in    
Wind  
Wind Speed 9 mph ()    
Max Wind Speed 14 mph    
Max Gust Speed -    
Visibility 5.3 miles    
Events      
T = Trace of Precipitation, MM = Missing Value Source: Averaged Metar Reports

Daily Weather History Graph

Daily Weather History Graph

Search for Another Location

Airport:

Trip Planner

Search our weather history database for the weather conditions in past years. The results will help you decide how hot, cold, wet, or windy it might be!

Date:

Astronomy

Jun. 10, 2013 Rise Set
Actual Time 5:27 AM GST 7:08 PM GST
Civil Twilight 5:01 AM GST 7:34 PM GST
Nautical Twilight 4:30 AM GST 8:05 PM GST
Astronomical Twilight 3:58 AM GST 8:37 PM GST
Moon 6:48 AM GST (6/10) 8:28 PM GST (6/10)
Length of Visible Light 14h 32m
Length of Day
13h 40m
Waxing Crescent, 3% of the Moon is Illuminated
Jun 10
Waxing Crescent
Jun 16
First Quarter
Jun 23
Full
Jun 30
Last Quarter
Jul 8
New

Hourly Weather History & Observations

Time (GST) Temp. Heat Index Dew Point Humidity Pressure Visibility Wind Dir Wind Speed Gust Speed Precip Events Conditions
12:00 AM 86.0 °F 96.9 °F 77.0 °F 74% 29.47 in 6.2 mi SW 8.1 mph - N/A   Partly Cloudy
1:00 AM 85 °F - 77 °F 70% 29.47 in 6 mi SW 9.2 mph - -   Haze
1:00 AM 84.2 °F 94.1 °F 77.0 °F 79% 29.44 in 5.6 mi SW 9.2 mph - N/A   Partly Cloudy
2:00 AM 84.2 °F 94.1 °F 77.0 °F 79% 29.44 in 5.6 mi South 11.5 mph - N/A   Unknown
3:00 AM 82.4 °F 90.9 °F 77.0 °F 84% 29.44 in 6.2 mi South 10.4 mph - N/A   Scattered Clouds
4:00 AM 82 °F - 75 °F 73% 29.46 in 6 mi South 10.4 mph - -  
4:00 AM 82.4 °F 89.5 °F 75.2 °F 79% 29.44 in - South 10.4 mph - N/A   Clear
5:00 AM 80.6 °F 85.4 °F 73.4 °F 79% 29.47 in 6.2 mi South 9.2 mph - N/A   Partly Cloudy
6:00 AM 80.6 °F 85.4 °F 73.4 °F 79% 29.47 in 5.0 mi South 9.2 mph - N/A   Unknown
7:00 AM 82 °F - 72 °F 64% 29.50 in 5 mi South 10.4 mph - -   Widespread Dust
7:00 AM 82.4 °F 87.2 °F 71.6 °F 70% 29.47 in 5.0 mi South 10.4 mph - N/A   Unknown
8:00 AM 84.2 °F 89.6 °F 71.6 °F 66% 29.50 in 5.0 mi South 8.1 mph - N/A   Unknown
9:00 AM 87.8 °F 93.8 °F 71.6 °F 58% 29.47 in 5.0 mi South 9.2 mph - N/A   Unknown
10:00 AM 90 °F - 70 °F 43% 29.50 in 5 mi SSW 9.2 mph - -   Widespread Dust
10:00 AM 89.6 °F 94.7 °F 69.8 °F 52% 29.47 in 5.0 mi SSW 9.2 mph - N/A   Unknown
11:00 AM 93.2 °F 97.7 °F 68.0 °F 44% 29.47 in - Variable 9.2 mph - N/A   Clear
12:00 PM 96.8 °F 99.0 °F 64.4 °F 34% 29.44 in - South 10.4 mph - N/A   Clear
1:00 PM 97 °F - 72 °F 35% 29.45 in 6 mi SW 8.1 mph - -  
1:00 PM 96.8 °F 105.1 °F 71.6 °F 44% 29.44 in - SW 8.1 mph - N/A   Clear
1:02 PM 96.8 °F 107.3 °F 73.4 °F 47% 29.44 in - WNW 12.7 mph - N/A   Clear
2:00 PM 95.0 °F 104.5 °F 73.4 °F 49% 29.42 in 5.0 mi West 13.8 mph - N/A   Unknown
3:00 PM 93.2 °F 98.8 °F 69.8 °F 46% 29.42 in 5.0 mi West 13.8 mph - N/A   Unknown
4:00 PM 93 °F - 71 °F 40% 29.43 in 5 mi West 13.8 mph - -   Widespread Dust
4:00 PM 93.2 °F 100.5 °F 71.6 °F 49% 29.42 in 5.0 mi West 13.8 mph - N/A   Unknown
5:00 PM 91.4 °F 100.1 °F 73.4 °F 55% 29.42 in 5.0 mi WSW 10.4 mph - N/A   Unknown
6:00 PM 91.4 °F 100.1 °F 73.4 °F 55% 29.42 in 5.0 mi West 9.2 mph - N/A   Unknown
7:00 PM 89 °F - 72 °F 49% 29.44 in 5 mi WSW 6.9 mph - -   Widespread Dust
7:00 PM 89.6 °F 96.2 °F 71.6 °F 55% 29.42 in 5.0 mi WSW 6.9 mph - N/A   Unknown
8:00 PM 87.8 °F 95.6 °F 73.4 °F 62% 29.44 in - WSW 5.8 mph - N/A   Clear
9:00 PM 87.8 °F 95.6 °F 73.4 °F 62% 29.44 in - Variable 4.6 mph - N/A   Clear
10:00 PM 87.8 °F 95.6 °F 73.4 °F 62% 29.47 in - SW 5.8 mph - N/A   Clear
11:00 PM 87.8 °F 93.8 °F 71.6 °F 58% 29.47 in - SW 8.1 mph - N/A   Clear